Aberdeen / Amory, MS

10:02 AM CDT on August 23, 2017 (GMT -0500)
Aberdeen / Amory

Weather History for KM40 - October, 2012

Change the Weather History Date:

Thursday, October 4, 2012

  Actual Average (KCBM) Record (KCBM)
Temperature  
Mean Temperature 70 °F -  
Max Temperature 84 °F 77 °F 93 °F (1998)
Min Temperature 55 °F 55 °F 40 °F (2010)
Cooling Degree Days 4    
Growing Degree Days 20 (Base 50)    
Moisture  
Dew Point 50 °F    
Average Humidity 55    
Maximum Humidity 60    
Minimum Humidity 51    
Precipitation  
Precipitation 0.00 in - - ()
Sea Level Pressure  
Sea Level Pressure 30.22 in    
Wind  
Wind Speed 1 mph ()    
Max Wind Speed 7 mph    
Max Gust Speed -    
Visibility 5.8 miles    
Events      
Averages and records for this station are not official NWS values.
T = Trace of Precipitation, MM = Missing Value Source: Averaged Metar Reports

Daily Weather History Graph

Daily Weather History Graph

Search for Another Location

Airport or City:

Trip Planner

Search our weather history database for the weather conditions in past years. The results will help you decide how hot, cold, wet, or windy it might be!

Date:

Astronomy

Oct. 04, 2012 Rise Set
Actual Time 6:50 AM CDT 6:33 PM CDT
Civil Twilight 6:25 AM CDT 6:58 PM CDT
Nautical Twilight 5:57 AM CDT 7:27 PM CDT
Astronomical Twilight 5:28 AM CDT 7:56 PM CDT
Moon 9:21 PM CDT (10/4) 10:55 AM CDT (10/4)
Length of Visible Light 12h 32m
Length of Day
11h 42m
Waning Gibbous, 82% of the Moon is Illuminated
Oct 4
Waning Gibbous
Oct 8
Last Quarter
Oct 15
New
Oct 21
First Quarter
Oct 29
Full

Hourly Weather History & Observations

Time (CDT) Temp. Heat Index Dew Point Humidity Pressure Visibility Wind Dir Wind Speed Gust Speed Precip Events Conditions
12:15 AM 59.0 °F - 42.8 °F 55% 30.18 in 7.0 mi Calm Calm - N/A   Clear
12:35 AM 57.2 °F - 42.8 °F 59% 30.18 in 8.0 mi Calm Calm - N/A   Clear
12:55 AM 57.2 °F - 41.0 °F 55% 30.18 in 4.0 mi Calm Calm - N/A   Haze
1:15 AM 57.2 °F - 41.0 °F 55% 30.18 in 5.0 mi Calm Calm - N/A   Haze
1:35 AM 57.2 °F - 39.2 °F 51% 30.19 in 1.5 mi Calm Calm - N/A   Haze
1:55 AM 57.2 °F - 41.0 °F 55% 30.19 in 5.0 mi Calm Calm - N/A   Haze
2:15 AM 57.2 °F - 41.0 °F 55% 30.19 in 3.0 mi Calm Calm - N/A   Haze
2:35 AM 57.2 °F - 39.2 °F 51% 30.20 in 1.5 mi Calm Calm - N/A   Haze
2:55 AM 57.2 °F - 39.2 °F 51% 30.20 in 5.0 mi Calm Calm - N/A   Haze
3:15 AM 57.2 °F - 41.0 °F 55% 30.20 in 2.0 mi Calm Calm - N/A   Haze
3:35 AM 57.2 °F - 41.0 °F 55% 30.20 in 5.0 mi Calm Calm - N/A   Haze
3:55 AM 57.2 °F - 42.8 °F 59% 30.20 in 7.0 mi Calm Calm - N/A   Partly Cloudy
4:15 AM 59.0 °F - 42.8 °F 55% 30.21 in 7.0 mi Calm Calm - N/A   Clear
4:35 AM 59.0 °F - 42.8 °F 55% 30.22 in 7.0 mi Calm Calm - N/A   Scattered Clouds
4:55 AM 57.2 °F - 41.0 °F 55% 30.22 in 7.0 mi Calm Calm - N/A   Partly Cloudy
5:15 AM 57.2 °F - 41.0 °F 55% 30.23 in 5.0 mi Calm Calm - N/A   Haze
5:35 AM 57.2 °F - 39.2 °F 51% 30.24 in 5.0 mi Calm Calm - N/A   Haze
5:55 AM 57.2 °F - 41.0 °F 55% 30.24 in 5.0 mi Calm Calm - N/A   Haze
6:15 AM 57.2 °F - 41.0 °F 55% 30.24 in 6.0 mi Calm Calm - N/A   Haze
6:55 AM 55.4 °F - 39.2 °F 54% 30.25 in 0.5 mi Calm Calm - N/A   Haze
7:15 AM 57.2 °F - 41.0 °F 55% 30.25 in 3.0 mi Calm Calm - N/A   Haze
7:35 AM 59.0 °F - 42.8 °F 55% 30.26 in 5.0 mi Calm Calm - N/A   Haze
7:55 AM 60.8 °F - 44.6 °F 55% 30.27 in 6.0 mi Calm Calm - N/A   Haze
8:15 AM 62.6 °F - 46.4 °F 55% 30.27 in 7.0 mi SSE 3.5 mph - N/A   Clear
8:55 AM 66.2 °F - 50.0 °F 56% 30.28 in 9.0 mi South 5.8 mph - N/A   Clear
9:15 AM 66.2 °F - 50.0 °F 56% 30.29 in 9.0 mi South 6.9 mph - N/A   Mostly Cloudy
9:35 AM 66.2 °F - 51.8 °F 60% 30.29 in 9.0 mi South 4.6 mph - N/A   Mostly Cloudy
9:55 AM 69.8 °F - 53.6 °F 56% 30.29 in 8.0 mi South 3.5 mph - N/A   Mostly Cloudy
10:15 AM 73.4 °F - 57.2 °F 57% 30.29 in 9.0 mi SW 3.5 mph - N/A   Partly Cloudy
10:35 AM 73.4 °F - 57.2 °F 57% 30.29 in 9.0 mi SW 3.5 mph - N/A   Clear
10:55 AM 78.8 °F - 60.8 °F 54% 30.29 in 10.0 mi Calm Calm - N/A   Clear
11:35 AM 78.8 °F - 60.8 °F 54% 30.28 in 9.0 mi Calm Calm - N/A   Clear
11:55 AM 80.6 °F 81.8 °F 62.6 °F 54% 30.28 in 9.0 mi Calm Calm - N/A   Clear
12:15 PM 82.4 °F 83.9 °F 64.4 °F 54% 30.27 in 10.0 mi West 3.5 mph - N/A   Clear
12:55 PM 82.4 °F 83.9 °F 64.4 °F 54% 30.25 in 5.0 mi NNW 3.5 mph - N/A   Haze
1:15 PM 84.2 °F 86.6 °F 66.2 °F 55% 30.24 in 8.0 mi West 3.5 mph - N/A   Scattered Clouds
1:35 PM 84.2 °F 86.6 °F 66.2 °F 55% 30.23 in 9.0 mi SE 3.5 mph - N/A   Partly Cloudy
1:55 PM 84.2 °F 86.6 °F 66.2 °F 55% 30.22 in 9.0 mi Calm Calm - N/A   Partly Cloudy
2:35 PM 82.4 °F 83.9 °F 64.4 °F 54% 30.21 in 9.0 mi Calm Calm - N/A   Scattered Clouds
2:55 PM 84.2 °F 86.6 °F 66.2 °F 55% 30.21 in 9.0 mi SSW 3.5 mph - N/A   Clear
3:15 PM 84.2 °F 86.6 °F 66.2 °F 55% 30.21 in 8.0 mi Calm Calm - N/A   Clear
3:35 PM 84.2 °F 86.6 °F 66.2 °F 55% 30.20 in 10.0 mi SSW 3.5 mph - N/A   Clear
3:55 PM 84.2 °F 86.6 °F 66.2 °F 55% 30.20 in 9.0 mi Calm Calm - N/A   Clear
4:15 PM 82.4 °F 83.9 °F 64.4 °F 54% 30.20 in 10.0 mi South 3.5 mph - N/A   Clear
4:35 PM 82.4 °F 83.9 °F 64.4 °F 54% 30.19 in 9.0 mi SSE 3.5 mph - N/A   Clear
4:55 PM 82.4 °F 83.9 °F 64.4 °F 54% 30.19 in 9.0 mi SE 4.6 mph - N/A   Clear
5:15 PM 80.6 °F 81.8 °F 62.6 °F 54% 30.19 in 9.0 mi Calm Calm - N/A   Clear
5:55 PM 73.4 °F - 57.2 °F 57% 30.19 in 8.0 mi Calm Calm - N/A   Clear
6:15 PM 71.6 °F - 55.4 °F 57% 30.19 in 7.0 mi Calm Calm - N/A   Clear
6:35 PM 69.8 °F - 53.6 °F 56% 30.19 in 7.0 mi Calm Calm - N/A   Clear
6:55 PM 68.0 °F - 51.8 °F 56% 30.19 in 6.0 mi Calm Calm - N/A   Haze
7:15 PM 66.2 °F - 50.0 °F 56% 30.19 in 6.0 mi Calm Calm - N/A   Haze
7:35 PM 64.4 °F - 48.2 °F 56% 30.19 in 5.0 mi Calm Calm - N/A   Haze
7:55 PM 64.4 °F - 48.2 °F 56% 30.19 in 4.0 mi Calm Calm - N/A   Haze
8:15 PM 62.6 °F - 46.4 °F 55% 30.19 in 2.5 mi Calm Calm - N/A   Haze
8:35 PM 62.6 °F - 46.4 °F 55% 30.19 in 1.5 mi Calm Calm - N/A   Haze
8:55 PM 62.6 °F - 46.4 °F 55% 30.20 in 1.5 mi Calm Calm - N/A   Haze
9:15 PM 62.6 °F - 46.4 °F 55% 30.20 in 1.2 mi Calm Calm - N/A   Haze
9:35 PM 62.6 °F - 44.6 °F 52% 30.21 in 1.5 mi Calm Calm - N/A   Haze
9:55 PM 60.8 °F - 44.6 °F 55% 30.21 in 3.0 mi Calm Calm - N/A   Haze
10:15 PM 60.8 °F - 44.6 °F 55% 30.21 in 1.0 mi Calm Calm - N/A   Haze
10:55 PM 60.8 °F - 44.6 °F 55% 30.21 in 0.2 mi Calm Calm - N/A   Haze
11:15 PM 60.8 °F - 42.8 °F 52% 30.21 in 0.2 mi Calm Calm - N/A   Haze
11:35 PM 59.0 °F - 42.8 °F 55% 30.21 in 0.5 mi Calm Calm - N/A   Haze
11:55 PM 59.0 °F - 42.8 °F 55% 30.21 in 0.8 mi Calm Calm - N/A   Haze